Toronto, Ontario

7:52 AM EDT on July 28, 2017 (GMT -0400)
Toronto

Weather History for CYTZ - March, 2013

Change the Weather History Date:

Sunday, March 24, 2013

  Actual Average Record
Temperature  
Mean Temperature 33 °F -  
Max Temperature 39 °F 48 °F 51 °F (2012)
Min Temperature 27 °F 34 °F 15 °F (2014)
Degree Days  
Heating Degree Days 32    
Moisture  
Dew Point 22 °F    
Average Humidity 63    
Maximum Humidity 80    
Minimum Humidity 31    
Precipitation  
Precipitation 0.00 in 0.08 in - ()
Sea Level Pressure  
Sea Level Pressure 29.94 in    
Wind  
Wind Speed 7 mph ()    
Max Wind Speed 14 mph    
Max Gust Speed -    
Visibility 9.1 miles    
Events      
Averages and records for this station are not official NWS values.
T = Trace of Precipitation, MM = Missing Value Source: Averaged Metar Reports

Daily Weather History Graph

Daily Weather History Graph

Search for Another Location

Airport or City:

Trip Planner

Search our weather history database for the weather conditions in past years. The results will help you decide how hot, cold, wet, or windy it might be!

Date:

Astronomy

Mar. 24, 2013 Rise Set
Actual Time 7:13 AM EDT 7:35 PM EDT
Civil Twilight 6:44 AM EDT 8:03 PM EDT
Nautical Twilight 6:10 AM EDT 8:37 PM EDT
Astronomical Twilight 5:36 AM EDT 9:12 PM EDT
Moon 4:57 PM EDT (3/24) 5:27 AM EDT (3/24)
Length of Visible Light 13h 19m
Length of Day
12h 21m
Waxing Gibbous, 91% of the Moon is Illuminated
Mar 24
Waxing Gibbous
Mar 27
Full
Apr 3
Last Quarter
Apr 10
New
Apr 18
First Quarter

Hourly Weather History & Observations

Time (EDT) Temp. Windchill Dew Point Humidity Pressure Visibility Wind Dir Wind Speed Gust Speed Precip Events Conditions
12:00 AM 32.0 °F 24.8 °F 23.0 °F 69% 30.06 in 9.0 mi WNW 8.1 mph - N/A   Clear
1:00 AM 30.2 °F 22.6 °F 23.0 °F 75% 30.05 in 9.0 mi WNW 8.1 mph - N/A   Clear
2:00 AM 30 °F - 22 °F 62% 30.02 in 10 mi NW 6.9 mph - -  
2:00 AM 30.2 °F 23.4 °F 21.2 °F 69% 30.02 in 9.0 mi NW 6.9 mph - N/A   Clear
3:00 AM 30.2 °F 24.3 °F 21.2 °F 69% 30.00 in 9.0 mi NW 5.8 mph - N/A   Clear
4:00 AM 28.4 °F 21.2 °F 21.2 °F 74% 30.00 in 9.0 mi WNW 6.9 mph - N/A   Clear
5:00 AM 28.4 °F 22.2 °F 21.2 °F 74% 30.03 in 9.0 mi NW 5.8 mph - N/A   Clear
6:00 AM 28.4 °F 20.4 °F 23.0 °F 80% 30.01 in 9.0 mi NNW 8.1 mph - N/A   Clear
7:00 AM 28.4 °F 21.2 °F 21.2 °F 74% 30.01 in 9.0 mi NW 6.9 mph - N/A   Clear
8:00 AM 29 °F - 22 °F 66% 30.02 in 10 mi WNW 4.6 mph - -  
8:00 AM 30.2 °F 24.3 °F 23.0 °F 75% 30.01 in 9.0 mi WNW 5.8 mph - N/A   Clear
9:00 AM 32.0 °F 24.8 °F 23.0 °F 69% 30.01 in 9.0 mi NW 8.1 mph - N/A   Clear
10:00 AM 35.6 °F 30.7 °F 21.2 °F 56% 29.99 in 9.0 mi NW 5.8 mph - N/A   Clear
11:00 AM 37.4 °F 33.8 °F 17.6 °F 45% 30.00 in 9.0 mi East 4.6 mph - N/A   Mostly Cloudy
12:00 PM 35.6 °F - 19.4 °F 52% 29.96 in 9.0 mi Variable 2.3 mph - N/A   Overcast
1:00 PM 37.4 °F 32.1 °F 17.6 °F 45% 29.94 in 9.0 mi East 6.9 mph - N/A   Partly Cloudy
2:00 PM 39 °F - 19 °F 31% 29.91 in 10 mi ESE 8.1 mph - -  
2:00 PM 39.2 °F 33.6 °F 19.4 °F 45% 29.91 in 9.0 mi ESE 8.1 mph - N/A   Partly Cloudy
4:00 PM 37.4 °F 30.8 °F 21.2 °F 52% 29.84 in 9.0 mi SE 9.2 mph - N/A   Overcast
5:00 PM 35.6 °F 28.6 °F 21.2 °F 56% 29.82 in 9.0 mi East 9.2 mph - N/A   Overcast
6:00 PM 35.6 °F 29.9 °F 23.0 °F 60% 29.82 in 9.0 mi East 6.9 mph - N/A   Overcast
7:00 PM 35.6 °F 29.9 °F 23.0 °F 60% 29.82 in 9.0 mi East 6.9 mph - N/A   Mostly Cloudy
8:00 PM 34 °F - 24 °F 55% 29.81 in 10 mi ENE 10.4 mph - -   Overcast
8:00 PM 33.8 °F 25.8 °F 24.8 °F 70% 29.81 in 9.0 mi ENE 10.4 mph - N/A   Overcast
9:00 PM 33.8 °F 25.8 °F 24.8 °F 70% 29.81 in 9.0 mi ENE 10.4 mph - N/A   Mostly Cloudy
10:00 PM 33.8 °F 25.3 °F 24.8 °F 70% 29.80 in 9.0 mi East 11.5 mph - N/A   Mostly Cloudy
11:00 PM 33.8 °F 24.3 °F 24.8 °F 70% 29.78 in 9.0 mi ENE 13.8 mph - N/A   Overcast